Weather History for Springfield, VT

Change the Weather History Date:

Friday, March 29, 2013

  Actual Average Record
Temperature  
Mean Temperature 39 °F 36 °F  
Max Temperature 49 °F 47 °F 64 °F (1998)
Min Temperature 28 °F 25 °F 19 °F (2001)
Degree Days  
Heating Degree Days 26 29  
Month to date heating degree days 976 980  
Since 1 July heating degree days 5828 6425  
Cooling Degree Days 0 0  
Month to date cooling degree days 0 0  
Year to date cooling degree days 0 0  
Moisture  
Dew Point 28 °F    
Average Humidity 67    
Maximum Humidity 92    
Minimum Humidity 42    
Precipitation  
Precipitation T in 0.13 in 0.54 in (2009)
Month to date precipitation 1.70 3.02  
Year to date precipitation 4.81 8.63  
Sea Level Pressure  
Sea Level Pressure 30.06 in    
Wind  
Wind Speed 4 mph (WNW)    
Max Wind Speed 15 mph    
Max Gust Speed 26 mph    
Visibility 10 miles    
Events Rain    
T = Trace of Precipitation, MM = Missing Value Source: NWS Daily Summary

Daily Weather History Graph

Daily Weather History Graph

Search for Another Location

Airport:

Trip Planner

Search our weather history database for the weather conditions in past years. The results will help you decide how hot, cold, wet, or windy it might be!

Date:

Astronomy

Mar. 29, 2013 Rise Set
Actual Time 6:36 AM EDT 7:13 PM EDT
Civil Twilight 6:08 AM EDT 7:42 PM EDT
Nautical Twilight 5:34 AM EDT 8:16 PM EDT
Astronomical Twilight 4:59 AM EDT 8:51 PM EDT
Moon 10:16 PM EDT 7:38 AM EDT
Length of Visible Light 13h 33m
Length of Day
12h 36m
Waning Gibbous, 93% of the Moon is Illuminated
Mar 29
Waning Gibbous
Apr 3
Last Quarter
Apr 10
New
Apr 18
First Quarter
Apr 25
Full

Hourly Weather History & Observations

Time (EDT) Temp. Windchill Dew Point Humidity Pressure Visibility Wind Dir Wind Speed Gust Speed Precip Events Conditions
12:54 AM 30.0 °F - 26.1 °F 85% 30.07 in 10.0 mi Calm Calm - N/A   Mostly Cloudy
1:54 AM 30.0 °F - 26.1 °F 85% 30.07 in 10.0 mi Calm Calm - N/A   Overcast
2:54 AM 30.0 °F - 26.1 °F 85% 30.06 in 10.0 mi Calm Calm - N/A   Overcast
3:54 AM 30.0 °F - 26.1 °F 85% 30.07 in 10.0 mi Calm Calm - N/A   Overcast
4:54 AM 30.0 °F - 26.1 °F 85% 30.06 in 10.0 mi Calm Calm - N/A   Overcast
5:54 AM 30.0 °F - 26.1 °F 85% 30.07 in 9.0 mi Calm Calm - N/A   Overcast
6:54 AM 28.9 °F - 26.1 °F 89% 30.08 in 9.0 mi Calm Calm - N/A   Partly Cloudy
7:54 AM 32.0 °F - 28.0 °F 85% 30.09 in 10.0 mi Calm Calm - N/A   Clear
8:54 AM 42.1 °F - 28.9 °F 60% 30.08 in 10.0 mi Calm Calm - N/A   Clear
9:54 AM 44.1 °F 39.0 °F 28.9 °F 55% 30.08 in 10.0 mi West 9.2 mph - N/A   Mostly Cloudy
10:54 AM 45.0 °F 41.2 °F 28.0 °F 52% 30.08 in 10.0 mi Variable 6.9 mph - N/A   Overcast
11:54 AM 46.9 °F - 27.0 °F 46% 30.06 in 10.0 mi WNW 8.1 mph 17.3 mph N/A   Clear
12:54 PM 48.9 °F - 28.9 °F 46% 30.05 in 10.0 mi West 12.7 mph 26.5 mph N/A   Scattered Clouds
1:54 PM 48.0 °F - 27.0 °F 44% 30.03 in 10.0 mi West 11.5 mph - N/A   Overcast
2:54 PM 46.9 °F - 26.1 °F 44% 30.03 in 10.0 mi WNW 8.1 mph - N/A   Overcast
3:54 PM 46.0 °F 43.1 °F 28.0 °F 50% 30.02 in 10.0 mi NNW 5.8 mph - N/A   Overcast
4:54 PM 44.1 °F 40.1 °F 28.9 °F 55% 30.04 in 10.0 mi WNW 6.9 mph - 0.00 in Rain Light Rain
5:54 PM 44.1 °F 40.8 °F 28.9 °F 55% 30.04 in 10.0 mi Variable 5.8 mph - 0.00 in   Overcast
6:54 PM 44.1 °F 42.5 °F 27.0 °F 51% 30.05 in 10.0 mi West 3.5 mph - N/A   Overcast
7:54 PM 43.0 °F 39.5 °F 27.0 °F 53% 30.06 in 10.0 mi NW 5.8 mph - N/A   Overcast
8:54 PM 41.0 °F 39.0 °F 28.9 °F 62% 30.07 in 10.0 mi West 3.5 mph - 0.00 in Rain Light Rain
9:54 PM 39.0 °F - 30.0 °F 70% 30.08 in 10.0 mi Calm Calm - 0.00 in   Overcast
10:54 PM 36.0 °F - 30.0 °F 79% 30.08 in 10.0 mi Calm Calm - N/A   Mostly Cloudy
11:54 PM 32.0 °F - 28.0 °F 85% 30.08 in 10.0 mi Calm Calm - N/A   Scattered Clouds